Brookpark, Ohio
Current Conditions -  °F | °C
As of 9:51 AM on Tuesday 21 Oct 2014 (Local Time) from KCLE Reporting Station
Light Rain Light Rain  
Wind Chill: 50°   Ceiling: 1400
Heat Index: 50°   Visibility: 10mi
Dew Point: 47°   Wind: 13mph
Humidity: 89%   Direction: 320°NW
Pressure: 29.94"   Gusts: NA
Location:  41.3979°N, 81.8118°W
Report Text: KCLE 211351Z 32011KT 10SM -RA BKN014 BKN019 OVC029 10/08 A2994 RMK AO2 SLP140 P0001 T01000083 $
Loading
Personal Weather Stations






























Interactive Weather Map
Tropical Storm Tracking
New forecast layout! Learn more

10-Day Weather Forecast

Advertisements
Track Severe Weather on mobile